Orbital Elements
Epoch 2011 Nov. 15.0 TT = JDT 2455880.5
T 2011 Nov. 11.83969 TT MPCW
q 1.0494385 (2000.0) P Q
n 0.18167078 Peri. 62.18140 -0.91163696 +0.39845654
a 3.0875404 Node 141.06357 -0.41033179 -0.86845780
e 0.6601053 Incl. 9.22501 -0.02336381 -0.29498041
P 5.43
From 446 observations 2006 Feb. 3-2016 Dec. 8, mean residual 0".8.
Nongravitational parameters A1 = +0.67, A2 = -0.0160.
|